This demonstration page uses our WeatherBlox Daily Observations layout. Learn more.

Left ArrowRight Arrow

34.02893, -84.19858

Hourly Observations for November 26, 2022

Temp ( °F °C ) Dew Point ( °F °C ) Humidity (%) Winds ( mph kmh ) Pressure ( in mb ) Visibility ( mi km ) Precip ( " mm )
12:56 am 00:56 Clear with Mist and Fog 45 7.2 44 6.7 97 97 Calm 30.14 1021 2 3 0.00 0.00
1:05 am 01:05 Clear with Mist and Fog 45 7.2 44 6.7 97 97 Calm 30.15 1021 3 5 0.00 0.00
1:53 am 01:53 Mostly Clear 45 7.2 44 6.7 97 97 Calm 30.12 1020 8 13 0.00 0.00
2:53 am 02:53 Clear with Mist and Fog 44 6.7 43 6.1 96 96 Calm 30.14 1021 2 3 0.00 0.00
3:03 am 03:03 Clear with Mist and Fog 45 7.2 44 6.7 97 97 Calm 30.16 1021 4 6 0.00 0.00
3:08 am 03:08 Mostly Clear with Mist and Fog 45 7.2 44 6.7 97 97 Calm 30.16 1021 2 3 0.00 0.00
3:18 am 03:18 Clear with Fog 45 7.2 44 6.7 97 97 Calm 30.15 1021 1 1 0.00 0.00
3:24 am 03:24 Clear with Mist and Fog 45 7.2 44 6.7 97 97 Calm 30.16 1021 1 2 0.00 0.00
3:27 am 03:27 Clear with Mist and Fog 44 6.7 44 6.7 100 100 Calm 30.16 1021 3 5 0.00 0.00
3:38 am 03:38 Clear with Mist and Fog 43 6.1 43 6.1 100 100 Calm 30.17 1022 2 3 0.00 0.00
3:53 am 03:53 Clear with Fog 42 5.6 41 5 96 96 Calm 30.14 1021 1 1 0.00 0.00
4:03 am 04:03 Clear with Mist and Fog 43 6.1 42 5.6 97 97 Calm 30.16 1021 3 5 0.00 0.00
4:15 am 04:15 Clear with Mist and Fog 44 6.7 43 6.1 96 96 Calm 30.16 1021 3 5 0.00 0.00
4:53 am 04:53 Clear 45 7.2 44 6.7 97 97 NE 3 6 30.15 1021 10 16 0.00 0.00
5:53 am 05:53 Clear 49 9.4 47 8.3 93 93 VRB 3 6 30.15 1021 10 16 0.00 0.00
6:53 am 06:53 Clear 49 9.4 46 7.8 90 90 Calm 30.17 1022 10 16 0.00 0.00
7:53 am 07:53 Sunny 49 9.4 45 7.2 86 86 Calm 30.18 1022 10 16 0.00 0.00
8:53 am 08:53 Sunny 53 11.7 45 7.2 74 74 VRB 3 6 30.18 1022 10 16 0.00 0.00
9:53 am 09:53 Sunny 56 13.3 43 6.1 62 62 undefined N/A 30.18 1022 10 16 0.00 0.00
10:53 am 10:53 Sunny 61 16.1 38 3.3 42 42 VRB 5 7 30.17 1022 10 16 0.00 0.00
11:53 am 11:53 Sunny 63 17.2 39 3.9 41 41 VRB 3 6 30.14 1021 10 16 0.00 0.00
12:53 pm 12:53 Sunny 64 17.8 40 4.4 41 41 SE 8 13 30.10 1019 10 16 0.00 0.00
1:53 pm 13:53 Sunny 65 18.3 42 5.6 43 43 VRB 7 11 30.09 1019 10 16 0.00 0.00
2:36 pm 14:36 Cloudy 64 17.8 44 6.7 48 48 Calm 30.06 1018 10 16 0.00 0.00
2:53 pm 14:53 Cloudy 63 17.2 45 7.2 52 52 SE 9 15 30.08 1019 10 16 0.00 0.00
3:53 pm 15:53 Cloudy 63 17.2 45 7.2 52 52 VRB 3 6 30.08 1019 10 16 0.00 0.00
4:53 pm 16:53 Cloudy 62 16.7 45 7.2 53 53 VRB 5 7 30.06 1018 10 16 0.00 0.00
5:53 pm 17:53 Cloudy 61 16.1 44 6.7 54 54 undefined N/A 30.05 1018 10 16 0.00 0.00
6:53 pm 18:53 Cloudy 61 16.1 45 7.2 56 56 VRB 7 11 30.05 1018 10 16 0.00 0.00
7:53 pm 19:53 Cloudy 59 15 47 8.3 64 64 ESE 8 13 30.06 1018 10 16 0.00 0.00
8:53 pm 20:53 Cloudy 57 13.9 48 8.9 72 72 SE 7 11 30.04 1017 9 14 0.00 0.00
9:53 pm 21:53 Cloudy with Light Rain 56 13.3 50 10 80 80 SE 7 11 30.04 1017 10 16 0.01 0.13
10:25 pm 22:25 Cloudy with Light Rain 54 12.2 51 10.6 90 90 ESE 7 11 30.02 1017 5 8 0.02 0.51
10:53 pm 22:53 Cloudy 53 11.7 52 11.1 96 96 VRB 3 6 30.00 1016 10 16 0.03 0.76
11:05 pm 23:05 Cloudy with Light Rain 53 11.7 52 11.1 96 96 VRB 5 7 30.00 1016 8 13 0.01 0.13
11:53 pm 23:53 Cloudy with Mist and Fog 53 11.7 52 11.1 96 96 E 5 7 29.96 1015 3 4 0.03 0.76

Powered by AerisWeather